TimeCST,TemperatureF,Dew PointF,Humidity,Sea Level PressureIn,VisibilityMPH,Wind Direction,Wind SpeedMPH,Gust SpeedMPH,PrecipitationIn,Events,Conditions,WindDirDegrees,DateUTC
1:53 AM,44.1,32.0,63,30.34,10.0,NE,3.5,-,N/A,,Clear,40,2013-01-05 07:53:00
2:53 AM,42.1,33.1,70,30.33,10.0,NE,3.5,-,N/A,,Clear,40,2013-01-05 08:53:00
3:53 AM,41.0,32.0,70,30.33,10.0,NNE,6.9,-,N/A,,Clear,30,2013-01-05 09:53:00
4:53 AM,39.9,30.9,70,30.35,10.0,Calm,Calm,-,N/A,,Clear,0,2013-01-05 10:53:00
5:53 AM,37.9,32.0,79,30.35,10.0,Calm,Calm,-,N/A,,Clear,0,2013-01-05 11:53:00
6:53 AM,36.0,33.1,89,30.37,10.0,Calm,Calm,-,N/A,,Clear,0,2013-01-05 12:53:00
7:53 AM,41.0,32.0,70,30.38,10.0,ENE,4.6,-,N/A,,Clear,70,2013-01-05 13:53:00
8:53 AM,44.1,32.0,63,30.39,10.0,NE,5.8,-,N/A,,Clear,50,2013-01-05 14:53:00
9:53 AM,48.0,30.0,50,30.38,10.0,ENE,8.1,-,N/A,,Clear,70,2013-01-05 15:53:00
10:53 AM,51.1,28.9,43,30.35,10.0,ENE,6.9,-,N/A,,Clear,60,2013-01-05 16:53:00
11:53 AM,52.0,30.0,43,30.32,10.0,ENE,5.8,-,N/A,,Clear,70,2013-01-05 17:53:00
12:53 PM,53.1,30.0,41,30.30,10.0,NE,6.9,-,N/A,,Clear,40,2013-01-05 18:53:00
1:53 PM,55.0,30.9,40,30.27,10.0,NNE,5.8,-,N/A,,Clear,30,2013-01-05 19:53:00
2:53 PM,54.0,32.0,43,30.28,10.0,NNE,4.6,-,N/A,,Clear,30,2013-01-05 20:53:00
3:53 PM,53.1,35.1,50,30.30,10.0,NNW,3.5,-,N/A,,Clear,330,2013-01-05 21:53:00
4:53 PM,46.9,42.1,83,30.30,9.0,North,6.9,-,0.03,Rain,Rain,10,2013-01-05 22:53:00
5:53 PM,46.9,43.0,86,30.32,10.0,Calm,Calm,-,0.04,,Scattered Clouds,0,2013-01-05 23:53:00
6:53 PM,46.9,45.0,93,30.35,10.0,Calm,Calm,-,N/A,,Scattered Clouds,0,2013-01-06 00:53:00
7:53 PM,46.9,43.0,86,30.32,10.0,Calm,Calm,-,N/A,,Mostly Cloudy,0,2013-01-06 01:53:00
8:53 PM,46.9,43.0,86,30.32,10.0,NNE,4.6,-,0.00,Rain,Light Rain,20,2013-01-06 02:53:00
9:53 PM,46.9,42.1,83,30.30,10.0,East,6.9,-,0.01,,Mostly Cloudy,90,2013-01-06 03:53:00
10:53 PM,46.9,39.9,77,30.26,10.0,ESE,8.1,-,N/A,,Mostly Cloudy,110,2013-01-06 04:53:00
11:53 PM,46.9,39.9,77,30.22,10.0,ESE,4.6,-,N/A,,Partly Cloudy,110,2013-01-06 05:53:00